• Em Portugal
  • Lista de países
  • Para 7 dias
  • Temperatura da água
  • Mapas de satélite
  • Mapa do tempo
  • Widgets de tempo
  • user-avatar
    Iniciar Sessão

    Previsão horária em Belmopan

    Hoje, 23 Setembro, Sábado

    Tempo Temperatura Precipitação Vento Pressão Humidade
    00:00 +24°C° 0 mm 0 m/s 749 mmHg 97%
    01:00 +24°C° 0,1 mm 0 m/s 749 mmHg 97%
    02:00 +24°C° 0,1 mm 0 m/s 749 mmHg 98%
    03:00 +24°C° 0,1 mm 0 m/s 748 mmHg 98%
    04:00 +24°C° 0,1 mm 0 m/s 749 mmHg 98%
    05:00 +24°C° 0,1 mm 0 m/s 749 mmHg 98%
    06:00 +24°C° 0,1 mm 0 m/s 749 mmHg 98%
    07:00 +26°C° 0,1 mm 0 m/s 749 mmHg 89%
    08:00 +30°C° 0,1 mm 1 m/s 750 mmHg 81%
    09:00 +32°C° 0,1 mm 1 m/s 750 mmHg 72%
    10:00 +33°C° 0,2 mm 1 m/s 750 mmHg 66%
    11:00 +34°C° 0,2 mm 1 m/s 749 mmHg 60%
    12:00 +36°C° 0,2 mm 2 m/s 749 mmHg 54%
    13:00 +36°C° 0,3 mm 2 m/s 748 mmHg 55%
    14:00 +36°C° 0,3 mm 2 m/s 747 mmHg 56%
    15:00 +36°C° 0,3 mm 2 m/s 746 mmHg 57%
    16:00 +34°C° 0,1 mm 2 m/s 747 mmHg 64%
    17:00 +31°C° 0,1 mm 1 m/s 747 mmHg 70%
    18:00 +30°C° 0,1 mm 1 m/s 747 mmHg 76%
    19:00 +29°C° 0 mm 1 m/s 748 mmHg 81%
    20:00 +28°C° 0 mm 1 m/s 748 mmHg 85%
    21:00 +27°C° 0 mm 1 m/s 749 mmHg 90%
    22:00 +27°C° 0 mm 1 m/s 749 mmHg 92%
    23:00 +26°C° 0 mm 1 m/s 749 mmHg 94%

    Amanhã, 24 Setembro, Domingo

    Tempo Temperatura Precipitação Vento Pressão Humidade
    00:00 +26°C° 0 mm 1 m/s 749 mmHg 96%
    01:00 +26°C° 0 mm 1 m/s 748 mmHg 96%
    02:00 +24°C° 0 mm 0 m/s 748 mmHg 97%
    03:00 +24°C° 0 mm 0 m/s 748 mmHg 97%
    04:00 +24°C° 0,3 mm 0 m/s 748 mmHg 97%
    05:00 +24°C° 0,3 mm 0 m/s 748 mmHg 98%
    06:00 +24°C° 0,3 mm 0 m/s 748 mmHg 98%
    07:00 +28°C° 0,9 mm 1 m/s 748 mmHg 92%
    08:00 +29°C° 0,9 mm 1 m/s 749 mmHg 86%
    09:00 +31°C° 0,9 mm 1 m/s 749 mmHg 80%
    10:00 +32°C° 0,5 mm 1 m/s 749 mmHg 73%
    11:00 +35°C° 0,5 mm 2 m/s 748 mmHg 67%
    12:00 +36°C° 0,5 mm 2 m/s 748 mmHg 61%
    13:00 +35°C° 1,4 mm 2 m/s 747 mmHg 67%
    14:00 +34°C° 1,4 mm 2 m/s 747 mmHg 74%
    15:00 +32°C° 1,4 mm 2 m/s 746 mmHg 81%
    16:00 +31°C° 0,3 mm 1 m/s 746 mmHg 85%
    17:00 +30°C° 0,3 mm 1 m/s 746 mmHg 88%
    18:00 +28°C° 0,3 mm 1 m/s 747 mmHg 92%
    19:00 +28°C° 0,5 mm 1 m/s 747 mmHg 94%
    20:00 +28°C° 0,5 mm 1 m/s 748 mmHg 95%
    21:00 +27°C° 0,5 mm 1 m/s 749 mmHg 97%
    22:00 +27°C° 0,2 mm 1 m/s 749 mmHg 97%
    23:00 +27°C° 0,2 mm 1 m/s 749 mmHg 97%

    Depois de amanhã, 25 Setembro, Segunda-feira

    Tempo Temperatura Precipitação Vento Pressão Humidade
    00:00 +26°C° 0,2 mm 1 m/s 748 mmHg 98%
    01:00 +26°C° 0,2 mm 1 m/s 748 mmHg 98%
    02:00 +26°C° 0,2 mm 1 m/s 748 mmHg 98%
    03:00 +26°C° 0,2 mm 1 m/s 747 mmHg 98%
    04:00 +26°C° 0,8 mm 1 m/s 747 mmHg 98%
    05:00 +26°C° 0,8 mm 1 m/s 748 mmHg 99%
    06:00 +26°C° 0,8 mm 1 m/s 748 mmHg 99%
    07:00 +27°C° 0,8 mm 1 m/s 748 mmHg 95%
    08:00 +28°C° 0,8 mm 1 m/s 749 mmHg 91%
    09:00 +29°C° 0,8 mm 1 m/s 749 mmHg 87%
    10:00 +31°C° 1 mm 2 m/s 749 mmHg 83%
    11:00 +32°C° 1 mm 2 m/s 748 mmHg 78%
    12:00 +34°C° 1 mm 2 m/s 748 mmHg 74%
    13:00 +32°C° 1,1 mm 2 m/s 747 mmHg 76%
    14:00 +32°C° 1,1 mm 2 m/s 746 mmHg 79%
    15:00 +31°C° 1,1 mm 2 m/s 746 mmHg 82%
    16:00 +30°C° 0,8 mm 2 m/s 746 mmHg 85%
    17:00 +29°C° 0,8 mm 1 m/s 746 mmHg 88%
    18:00 +28°C° 0,8 mm 1 m/s 746 mmHg 92%
    19:00 +27°C° 0,6 mm 1 m/s 747 mmHg 94%
    20:00 +27°C° 0,6 mm 1 m/s 748 mmHg 96%
    21:00 +27°C° 0,6 mm 1 m/s 748 mmHg 98%
    22:00 +27°C° 0,3 mm 1 m/s 748 mmHg 98%
    23:00 +27°C° 0,3 mm 1 m/s 748 mmHg 98%

    26 Setembro, Terça-feira

    Tempo Temperatura Precipitação Vento Pressão Humidade
    00:00 +26°C° 0,3 mm 1 m/s 747 mmHg 98%
    01:00 +26°C° 0,1 mm 1 m/s 747 mmHg 98%
    02:00 +26°C° 0,1 mm 1 m/s 746 mmHg 98%
    03:00 +26°C° 0,1 mm 1 m/s 746 mmHg 98%
    04:00 +26°C° 0,5 mm 1 m/s 746 mmHg 98%
    05:00 +26°C° 0,5 mm 1 m/s 747 mmHg 97%
    06:00 +26°C° 0,5 mm 1 m/s 747 mmHg 97%
    07:00 +28°C° 0,5 mm 1 m/s 747 mmHg 94%
    08:00 +29°C° 0,5 mm 1 m/s 748 mmHg 90%
    09:00 +30°C° 0,5 mm 2 m/s 748 mmHg 86%
    10:00 +32°C° 0,1 mm 2 m/s 748 mmHg 78%
    11:00 +34°C° 0,1 mm 2 m/s 747 mmHg 69%
    12:00 +35°C° 0,1 mm 2 m/s 747 mmHg 61%
    13:00 +35°C° 0,1 mm 2 m/s 746 mmHg 61%
    14:00 +35°C° 0,1 mm 2 m/s 745 mmHg 61%
    15:00 +35°C° 0,1 mm 2 m/s 745 mmHg 61%
    16:00 +34°C° 0,1 mm 2 m/s 745 mmHg 68%
    17:00 +31°C° 0,1 mm 2 m/s 745 mmHg 76%
    18:00 +30°C° 0,1 mm 2 m/s 746 mmHg 83%
    19:00 +29°C° 0,6 mm 2 m/s 746 mmHg 86%
    20:00 +29°C° 0,6 mm 1 m/s 747 mmHg 89%
    21:00 +28°C° 0,6 mm 1 m/s 747 mmHg 92%
    22:00 +28°C° 0,1 mm 1 m/s 747 mmHg 91%
    23:00 +28°C° 0,1 mm 1 m/s 747 mmHg 90%

    27 Setembro, Quarta-feira

    Tempo Temperatura Precipitação Vento Pressão Humidade
    00:00 +28°C° 0,1 mm 1 m/s 746 mmHg 89%
    01:00 +28°C° 0,1 mm 1 m/s 746 mmHg 90%
    02:00 +28°C° 0,1 mm 1 m/s 745 mmHg 91%
    03:00 +27°C° 0,1 mm 1 m/s 745 mmHg 93%
    04:00 +27°C° 0,5 mm 1 m/s 745 mmHg 93%
    05:00 +27°C° 0,5 mm 1 m/s 745 mmHg 94%
    06:00 +27°C° 0,5 mm 1 m/s 746 mmHg 94%
    07:00 +28°C° 0,4 mm 1 m/s 746 mmHg 89%
    08:00 +30°C° 0,4 mm 1 m/s 747 mmHg 84%
    09:00 +31°C° 0,4 mm 1 m/s 747 mmHg 79%
    10:00 +32°C° 0,3 mm 1 m/s 747 mmHg 70%
    11:00 +34°C° 0,3 mm 1 m/s 747 mmHg 62%
    12:00 +35°C° 0,3 mm 1 m/s 746 mmHg 53%
    13:00 +35°C° 0,3 mm 1 m/s 746 mmHg 57%
    14:00 +34°C° 0,3 mm 1 m/s 745 mmHg 60%
    15:00 +34°C° 0,3 mm 1 m/s 745 mmHg 63%
    16:00 +32°C° 0,3 mm 1 m/s 745 mmHg 70%
    17:00 +31°C° 0,3 mm 1 m/s 746 mmHg 77%
    18:00 +29°C° 0,3 mm 1 m/s 746 mmHg 84%
    19:00 +28°C° 0,2 mm 1 m/s 747 mmHg 88%
    20:00 +28°C° 0,2 mm 1 m/s 747 mmHg 92%
    21:00 +27°C° 0,2 mm 1 m/s 748 mmHg 96%
    22:00 +27°C° 0,7 mm 1 m/s 747 mmHg 97%
    23:00 +27°C° 0,7 mm 1 m/s 747 mmHg 97%

    28 Setembro, Quinta-feira

    Tempo Temperatura Precipitação Vento Pressão Humidade
    00:00 +24°C° 0,7 mm 0 m/s 747 mmHg 97%
    01:00 +24°C° 0 mm 0 m/s 747 mmHg 97%
    02:00 +24°C° 0 mm 0 m/s 747 mmHg 97%
    03:00 +24°C° 0 mm 0 m/s 746 mmHg 97%
    04:00 +24°C° 0 mm 0 m/s 747 mmHg 97%
    05:00 +24°C° 0 mm 0 m/s 747 mmHg 97%
    06:00 +24°C° 0 mm 0 m/s 747 mmHg 96%
    07:00 +26°C° 0 mm 0 m/s 747 mmHg 85%
    08:00 +29°C° 0 mm 0 m/s 748 mmHg 73%
    09:00 +32°C° 0 mm 0 m/s 748 mmHg 62%
    10:00 +33°C° 0 mm 0 m/s 747 mmHg 56%
    11:00 +36°C° 0 mm 1 m/s 747 mmHg 49%
    12:00 +37°C° 0 mm 1 m/s 746 mmHg 43%
    13:00 +37°C° 0,1 mm 1 m/s 746 mmHg 48%
    14:00 +37°C° 0,1 mm 2 m/s 745 mmHg 52%
    15:00 +36°C° 0,1 mm 2 m/s 745 mmHg 57%
    16:00 +33°C° 0,5 mm 1 m/s 745 mmHg 67%
    17:00 +31°C° 0,5 mm 1 m/s 746 mmHg 78%
    18:00 +29°C° 0,5 mm 1 m/s 747 mmHg 88%
    19:00 +28°C° 0,4 mm 1 m/s 747 mmHg 91%
    20:00 +28°C° 0,4 mm 1 m/s 748 mmHg 94%
    21:00 +28°C° 0,4 mm 1 m/s 748 mmHg 96%
    22:00 +27°C° 0,3 mm 1 m/s 748 mmHg 97%
    23:00 +27°C° 0,3 mm 1 m/s 748 mmHg 98%
    Mostrar mais